TimeEST,TemperatureF,Dew PointF,Humidity,Sea Level PressureIn,VisibilityMPH,Wind Direction,Wind SpeedMPH,Gust SpeedMPH,PrecipitationIn,Events,Conditions,WindDirDegrees,DateUTC
12:52 AM,37.0,28.0,70,29.96,9.0,Calm,Calm,-,N/A,,Mostly Cloudy,0,2013-02-06 05:52:00
1:52 AM,37.0,28.0,70,29.96,9.0,Calm,Calm,-,N/A,,Mostly Cloudy,0,2013-02-06 06:52:00
2:52 AM,37.0,30.0,76,29.96,9.0,Calm,Calm,-,N/A,,Overcast,0,2013-02-06 07:52:00
3:52 AM,36.0,28.9,76,29.98,8.0,Calm,Calm,-,N/A,,Scattered Clouds,0,2013-02-06 08:52:00
4:52 AM,35.1,28.9,78,30.01,9.0,SSW,3.5,-,0.00,Rain,Light Rain,210,2013-02-06 09:52:00
5:52 AM,37.0,28.0,70,30.05,10.0,WSW,5.8,-,0.00,,Overcast,240,2013-02-06 10:52:00
6:52 AM,35.1,27.0,72,30.08,10.0,South,3.5,-,N/A,,Partly Cloudy,180,2013-02-06 11:52:00
7:52 AM,37.0,28.0,70,30.12,8.0,Calm,Calm,-,N/A,,Partly Cloudy,0,2013-02-06 12:52:00
8:52 AM,41.0,30.0,65,30.16,10.0,North,9.2,-,N/A,,Partly Cloudy,350,2013-02-06 13:52:00
9:52 AM,44.1,27.0,51,30.17,10.0,NW,11.5,20.7,N/A,,Scattered Clouds,320,2013-02-06 14:52:00
10:52 AM,46.0,26.1,46,30.19,10.0,NNW,16.1,24.2,N/A,,Scattered Clouds,330,2013-02-06 15:52:00
11:52 AM,46.0,26.1,46,30.22,10.0,NNW,18.4,26.5,N/A,,Scattered Clouds,330,2013-02-06 16:52:00
12:52 PM,46.9,24.1,41,30.21,10.0,NNW,19.6,26.5,N/A,,Scattered Clouds,330,2013-02-06 17:52:00
1:52 PM,48.0,24.1,39,30.21,10.0,NNW,18.4,23.0,N/A,,Scattered Clouds,330,2013-02-06 18:52:00
2:52 PM,48.0,23.0,37,30.21,10.0,NW,13.8,20.7,N/A,,Partly Cloudy,310,2013-02-06 19:52:00
3:52 PM,46.9,24.1,41,30.23,10.0,NW,9.2,-,N/A,,Partly Cloudy,320,2013-02-06 20:52:00
4:52 PM,45.0,24.1,44,30.23,10.0,NNW,13.8,23.0,N/A,,Partly Cloudy,330,2013-02-06 21:52:00
5:52 PM,42.1,23.0,47,30.27,10.0,North,9.2,-,N/A,,Scattered Clouds,350,2013-02-06 22:52:00
6:52 PM,39.9,23.0,51,30.30,10.0,North,12.7,-,N/A,,Partly Cloudy,350,2013-02-06 23:52:00
7:52 PM,37.9,23.0,55,30.32,10.0,North,5.8,-,N/A,,Scattered Clouds,360,2013-02-07 00:52:00
8:52 PM,36.0,21.9,57,30.34,10.0,North,5.8,-,N/A,,Clear,10,2013-02-07 01:52:00
9:52 PM,36.0,21.9,57,30.36,10.0,NE,9.2,-,N/A,,Clear,40,2013-02-07 02:52:00
10:52 PM,35.1,21.9,59,30.37,10.0,NE,5.8,-,N/A,,Partly Cloudy,50,2013-02-07 03:52:00
11:52 PM,35.6,21.2,56,30.37,10.0,ENE,3.5,-,N/A,,Clear,70,2013-02-07 04:52:00